Weather in Terentyevskoye

Russia / Kemerovo Oblast     54°05′54″N   86°56′53″E
temp.,
°C
wind,
m/s
gust,
m/s
humid.,
%
clouds,
%
prec.,
mm/h
press.,
hPa
HPBL,
m
5 march, fri
fri501:00−9sse338397 0.0 102124
04:00−11se227976 0.0 101921
07:00−12sse238088 0.0 101721
10:00−9sse3683100 0.0 1015189
13:00−2ssw61180100 0.0 1014741
16:00−2sw101789100 0.4 10151446
19:00−4sw6158989 0.7 1020913
22:00−5sw61684100 0.0 1022789
6 march, sat
sat601:00−5ssw61780100 0.0 10221116
04:00−5sw71779100 0.0 10211216
07:00−6sw51681100 0.0 1022976
10:00−5sw61677100 0.0 10211040
13:00−2sw71572100 0.0 10191243
16:00−1ssw71576100 0.0 10171403
19:00−3ssw41480100 0.0 1016866
22:00−4ssw41583100 0.0 1015806
7 march, sun
sun701:00−5ssw41385100 0.0 1015601
04:00−5s41186100 0.0 1014349
07:00−5ssw61392100 0.1 1015673
10:00−4sw61189100 0.1 1016741
13:00−2sw6986100 0.1 1018819
16:00−2sw5885100 0.1 1021893
19:00−5sw3490100 0.3 102366
22:00−10sw229436 0.0 102521
8 march, mon
mon801:00−10sse229552 0.0 102421
04:00−11ese239767 0.0 102222
07:00−9se249684 0.0 102185
10:00−5se2491100 0.0 1017139
13:00−1sse3689100 0.0 1014311
16:00+1s51196100 0.0 1012408
19:000s41186100 0.0 1011306
22:00−2sw51684100 0.0 1012858
9 march, tue
tue901:00−1sw6149598 0.1 1016772
04:00−4w5108984 0.1 1020344
07:00−13sw478850 0.1 1025120
10:00−10sw5987100 0.0 1027330
13:00−7sw4778100 0.0 1027652
16:00−5sw46750 0.0 1026775
19:00−9s22795 0.0 102521
22:00−11s228451 0.0 102421